Location: Barcelona
(41.3830°N, 2.1830°E)
Time: 13:13:21
(UTC+01:00)

ISS - Pass Details

Date: 17 March 2019
Orbit: 408 x 411 km, 51.6° (Epoch: 24 March)

Event Time Altitude Azimuth Distance (km) Brightness Sun altitude
Exits shadow 05:33:05 33° 200° (SSW) 710 -2.9 -17.1°
Drops below altitude 10° 05:35:36 10° 155° (SSE) 1,463 -0.9 -16.6°
Sets 05:37:46 0° 146° (SSE) 2,320 0.3 -16.2°
